Location: Chervonnoye
(48.6000°N, 34.4000°E)
Time: 21:02:37
(UTC+00:00)

RS-44 - Pass Details

Date: 07 December 2021
Orbit: 1175 x 1510 km, 82.5° (Epoch: 19 January)

Event Time Altitude Azimuth Distance (km) Brightness Sun altitude
Rises 15:34:27 0° 152° (SSE) 4,086 ? -16.9°
Reaches altitude 10° 15:37:27 10° 142° (SE) 3,106 ? -17.4°
Maximum altitude 15:43:31 31° 84° (E) 1,942 ? -18.3°
Enters shadow 15:46:23 23° 47° (NE) 2,262 ? -18.8°
Exits shadow 15:51:11 - 20° (NNE) 3,630 ? -19.6°
Sets 15:52:38 0° 16° (NNE) 4,115 ? -19.8°
